Regional Weather Roundup
Issued by NWS

Home | Current Version | Previous Version | Graphics & Text | Print | Product List | Glossary On
Versions: 1 2 3 4 5 6 7 8 9 10 11 12 13 14 15 16 17 18 19 20 21 22 23 24 25 26 27 28 29 30 31 32 33 34 35 36 37 38 39 40 41 42 43 44 45 46 47 48 49 50
000
ASUS43 KIND 190409
RWRIN

WEATHER ROUNDUP FOR INDIANA
NATIONAL WEATHER SERVICE INDIANAPOLIS IN
1100 PM EST SUN FEB 18 2018

NOTE: "FAIR" INDICATES FEW OR NO CLOUDS BELOW 12,000 FEET WITH NO
SIGNIFICANT WEATHER AND/OR OBSTRUCTIONS TO VISIBILITY.

* - STATION DOES NOT REPORT WEATHER SUCH AS PRECIPITATION OR FOG.

+ - STATION NOT QUALITY CONTROLLED BY THE NATIONAL WEATHER SERVICE.
    USE DATA WITH CAUTION...ESPECIALLY DEWPOINT AND RELATIVE
    HUMIDITY OBSERVATIONS.

INZ001>003-010>013-019-020-190500-
NORTHWEST INDIANA

CITY           SKY/WX    TMP DP  RH WIND       PRES   REMARKS
GARY /AIRPORT/ PTCLDY    41  30  65 SE17G29   29.94F
LA PORTE +     FAIR      37  31  79 S10       29.98F WCI  29
MICHIGAN CITY+ FAIR      37  32  81 S9G17     29.96F WCI  31
MONTICELLO +   FAIR      38  32  79 S8        29.98F WCI  32
RENSSELAER +   FAIR      39  30  70 SE16G23   29.96F WCI  30
VALPARAISO     FAIR      39  31  72 SE10      29.97F WCI  32

$$

LMZ046-743>745-190500-
SOUTHERN LAKE MICHIGAN

STATION/POSITION TIME  TEMP    WIND        PRES    WAVE
                       AIR SEA DIR/SP/G            HT
                 (UTC) (F)     (DEG/KT/KT) (MB)    (FT)
BURNS HARBOR     0340   39     170/ 16/ 24 1014.2F
MICHIGAN CITY    0340   39     150/ 21/ 24   N/A

$$

INZ004-005-014>016-021>024-190500-
NORTH CENTRAL INDIANA

CITY           SKY/WX    TMP DP  RH WIND       PRES   REMARKS
GOSHEN         FAIR      38  30  73 SE15      30.01S WCI  29
LOGANSPORT +   FAIR      36  32  87 SE12      30.01F WCI  27
PERU/GRISSOM   FAIR      38  37  98 S15       30.00F WCI  29
ROCHESTER +    FAIR      41  32  70 SE13      30.01F
SOUTH BEND     FAIR      38  29  70 S16       30.01F WCI  29
WARSAW +       FAIR      36  32  87 SE6       30.01F WCI  31

$$

INZ006>009-017-018-025>027-190500-
NORTHEAST INDIANA

CITY           SKY/WX    TMP DP  RH WIND       PRES   REMARKS
AUBURN +       FAIR      34  32  93 SE5       30.05F WCI  30
FORT WAYNE     MOCLDY    37  32  82 SE12      30.05F WCI  29
HUNTINGTON +   FAIR      36  31  83 S7        30.04F WCI  30
KENDALLVILLE + FAIR      35  32  88 S15       30.04S WCI  25

$$

INZ028-029-035-036-043>045-051>053-190500-
WEST CENTRAL INDIANA

CITY           SKY/WX    TMP DP  RH WIND       PRES   REMARKS
CRAWFORDSVL +  CLOUDY    39  33  78 SE14      30.02S WCI  31
GREENCASTLE +  CLOUDY    43  32  65 S12       30.04R
LAFAYETTE      CLOUDY    41  33  73 S9G18     29.99F
TERRE HAUTE    MOCLDY    44  33  65 S13       30.01F

$$

INZ030>032-037>040-046>048-054>057-064-065-190500-
CENTRAL INDIANA

CITY           SKY/WX    TMP DP  RH WIND       PRES   REMARKS
FISHERS *+       N/A     41  36  81 S10G18    30.04F
FRANKFORT +    MOCLDY    42  35  76 S10       30.03S
GREENWOOD *+   FAIR     N/A N/A N/A SE12      30.06F
INDIANAPOLIS   CLOUDY    42  33  70 S14G20    30.03F
-EAGLE CREEK   FAIR      42  32  67 SE7       30.03F
KOKOMO +       FAIR      39  33  79 S20       30.02F WCI  29
MARION +       FAIR      37  32  82 S13       30.04F WCI  28
MT COMFORT *+  FAIR      41  36  81 S16G22    30.04F
SHELBYVILLE    FAIR      40  33  76 SE13      30.06F WCI  32
ZIONSVILLE +   FAIR      40  33  75 S15       30.04S WCI  32

$$

INZ033-034-041-042-049-050-058-059-190500-
EAST CENTRAL INDIANA

CITY           SKY/WX    TMP DP  RH WIND       PRES   REMARKS
MUNCIE         FAIR      42  32  67 S13G18    30.05F
RICHMOND +     FAIR      36  32  87 SE13      30.10F WCI  27

$$

INZ060-061-067>069-081>083-085>088-190500-
SOUTHWEST INDIANA

CITY           SKY/WX    TMP DP  RH WIND       PRES   REMARKS
EVANSVILLE     CLOUDY    49  36  61 SE6       30.05F
HUNTINGBURG +  CLOUDY    48  36  63 SE9       30.06F
WASHINGTON +   CLOUDY    43  35  72 SE9       30.04F

$$

INZ062-063-066-070>080-084-089>092-190500-
SOUTH CENTRAL AND SOUTHEAST INDIANA

CITY           SKY/WX    TMP DP  RH WIND       PRES   REMARKS
BATESVILLE +   MOCLDY    41  34  75 MISG      30.10S
BEDFORD +      CLOUDY    45  32  61 SE8       30.06F
BLOOMINGTON    CLOUDY    44  33  65 S10       30.04F
FRENCH LICK *+ MOCLDY    45  30  57 SE7       30.06F
MADISON *+     MOCLDY    43  32  65 SE6       30.12F
NORTH VERNON + MOCLDY    43  32  65 SE7       30.10F
SEYMOUR +      CLOUDY    45  34  65 SE6       30.09F

$$





USA.gov is the U.S. government's official web portal to all federal, state and local government web resources and services.